Regional Weather Roundup
Issued by NWS

Home | Current Version | Previous Version | Text Only | Print | Product List | Glossary Off
Versions: 1 2 3 4 5 6 7 8 9 10 11 12 13 14 15 16 17 18 19 20 21 22 23 24 25 26 27 28 29 30 31 32 33 34 35 36 37 38 39 40 41 42 43 44 45 46 47 48 49 50

466
ASUS43 KMKX 261321
RWRWI

WISCONSIN REGIONAL WEATHER ROUNDUP
NATIONAL WEATHER SERVICE MILWAUKEE/SULLIVAN WI
800 AM CDT FRI MAY 26 2017

NOTE: "FAIR" INDICATES FEW OR NO CLOUDS BELOW 12,000 FEET WITH NO
SIGNIFICANT WEATHER AND/OR OBSTRUCTIONS TO VISIBILITY.

WIZ001-002-006>008-014>016-023>028-261400-
NORTHWEST WISCONSIN

CITY           SKY/WX    TMP DP  RH WIND       PRES   REMARKS
SUPERIOR ARPT  NOT AVBL
ASHLAND        CLOUDY    54  51  90 CALM      29.76F
HAYWARD        CLOUDY    61  49  64 S9        29.76R
SIREN          CLOUDY    61  52  73 SE8       29.72S
CUMBERLAND     CLOUDY    59  52  77 SE8       29.75S
RICE LAKE      CLOUDY    59  53  80 SE9       29.77R
CHETEK         CLOUDY    61  55  82 SE8       29.76S
LADYSMITH      CLOUDY    59  54  81 SE6       29.79F
EAU CLAIRE     MOSUNNY   63  54  72 S9        29.75F
MENOMONIE      MOSUNNY   62  56  81 E8        29.75S
NEW RICHMOND   CLOUDY    61  53  74 S7        29.73S
OSCEOLA        CLOUDY    62  53  73 SE8       29.75S
$$

WIZ003>005-009-010-017-018-261400-
NORTH CENTRAL WISCONSIN

CITY           SKY/WX    TMP DP  RH WIND       PRES   REMARKS
MANITOWISH WTR CLOUDY    55  55 100 SE6       29.81R
ARBOR VITAE    CLOUDY    57  54  89 S6        29.81S
WOODRUFF       CLOUDY    57  54  89 S6        29.81S
RHINELANDER    CLOUDY    57  54  89 CALM      29.83S
EAGLE RIVER    CLOUDY    55  52  90 S3        29.82S
LAND O LAKES   CLOUDY    54  52  93 CALM      29.83F
PHILLIPS       CLOUDY    57  54  88 SE5       29.79F
TOMAHAWK       CLOUDY    55  52  88 CALM      29.82S
MEDFORD        CLOUDY    56  54  91 CALM      29.80F
MERRILL        CLOUDY    56  55  96 CALM      29.83R
$$

WIZ029-030-035-036-043>047-261400-
CENTRAL WISCONSIN

CITY           SKY/WX    TMP DP  RH WIND       PRES   REMARKS
WAUSAU         CLOUDY    56  54  93 E6        29.81R
MOSINEE        PTSUNNY   55  55 100 E3        29.83S
MARSHFIELD     CLOUDY    59  55  87 E6        29.80S
STEVENS POINT  CLOUDY    56  56  99 E5        29.83S
WAUPACA        CLOUDY    59  58  96 S5        29.84S
WAUTOMA        CLOUDY    59  56  89 MISG        N/A
WISC RAPIDS    CLOUDY    59  56  89 SE6       29.83S
CAMP DOUGLAS   MOSUNNY   61  57  88 SE5       29.79F
$$

WIZ011>013-019>022-031-037>040-048>050-261400-
NORTHEAST WISCONSIN

CITY           SKY/WX    TMP DP  RH WIND       PRES   REMARKS
ANTIGO         CLOUDY    54  53  95 S6        29.84S
SHAWANO        CLOUDY    57  54  89 CALM      29.86S
OCONTO         CLOUDY    56  54  92 CALM      29.85R
STURGEON BAY   MOSUNNY   57  53  86 CALM      29.85S
GREEN BAY      CLOUDY    56  56 100 S5        29.86R
MANITOWOC      CLOUDY    55  52  89 SW3       29.87R
APPLETON       PTSUNNY   57  55  94 SE7       29.82F
CLINTONVILLE   PTSUNNY   55  54  94 E3        29.84F
OSHKOSH        CLOUDY    59  53  80 E6        29.83S
$$

WIZ032>034-041-042-053>061-261400-
SOUTHWEST WISCONSIN

CITY           SKY/WX    TMP DP  RH WIND       PRES   REMARKS
LA CROSSE      MOSUNNY   62  57  83 E6        29.76S
SPARTA         SUNNY     60  57  89 E6        29.78S
VIROQUA        MOSUNNY   59  56  88 SW7       29.78R
BOSCOBEL       CLOUDY    60  57  89 CALM      29.79R
PRAIRIE DU CHI MOSUNNY   61  54  78 E6        29.77S
PLATTEVILLE    CLOUDY    60  58  94 SE6       29.80S
$$

WIZ056-057-062-063-064-067-068-261400-
SOUTH CENTRAL WISCONSIN

CITY           SKY/WX    TMP DP  RH WIND       PRES   REMARKS
REEDSBURG      CLOUDY    60  58  95 CALM      29.80S
BARABOO/DELLS  CLOUDY    61  55  81 E5        29.81S
LONE ROCK      MOSUNNY   60  56  86 E10       29.79F FOG
MINERAL POINT  MOSUNNY   63  59  88 SE7       29.80R
MADISON        CLOUDY    59  54  83 SE5       29.81F
MIDDLETON      CLOUDY    60  59  99 SE3       29.82F
WATERTOWN      CLOUDY    58  56  94 E6        29.83F
MONROE         MOSUNNY   61  55  82 SE3       29.82S
JANESVILLE     MOSUNNY   61  59  94 SE3       29.82F
$$

WIZ051-052-058>065-066-070>072-261400-
SOUTHEAST WISCONSIN

CITY           SKY/WX    TMP DP  RH WIND       PRES   REMARKS
MILWAUKEE      PTSUNNY   57  55  93 E5        29.86S FOG
WAUKESHA       SUNNY     55  54  94 CALM      29.86S
MILWAUKEE/TIMM MOSUNNY   57  52  82 E6        29.87R
RACINE         MOSUNNY   57  53  86 NE5       29.88R
KENOSHA        SUNNY     60  54  80 E7        29.85S
FOND DU LAC    CLOUDY    60  53  77 S6        29.85R
SHEBOYGAN      CLOUDY    56  55  97 E3        29.86S
WEST BEND      CLOUDY    55  54  94 E3        29.85S
JUNEAU         MOSUNNY   58  54  88 E5        29.85S
$$

LSZ147-162-261400-
LAKE SUPERIOR

STATION/POSITION TIME  TEMP    WIND        PRES    WAVE
                       AIR SEA DIR/SP/G            HT/PER
                 (UTC) (F)     (DEG/KT/KT) (MB)    (FT/S)
W MID LAKE BUOY  1250   43 37  230/  2/  4 1008.8F   1
DEVILS ISLAND    1300   46     130/  6/  7 1008.3F
PORT WING        1240   45      CALM  /  1 1007.5F
SAXON HARBOR     1230   56     190/  2/  5 1007.8R
$$

LMZ867-665-643>646-261400-
LAKE MICHIGAN

STATION/POSITION TIME  TEMP    WIND        PRES    WAVE
                       AIR SEA DIR/SP/G            HT/PER
                 (UTC) (F)     (DEG/KT/KT) (MB)    (FT/S)
CHAMBERS ISLAND  1230   62     350/  1/  2 1010.2F
N MID LAKE BUOY  1250   44 41  280/  4/  4 1011.7R   0
NORTHPORT PIER   1240   53     320/  6/  7 1010.8R
KEWAUNEE LAKESHO 1254   48     120/  3/  4 1010.7R
SHEBOYGAN LAKESH 1300   48      50/  5/  5 1011.3R
PORT WASHINGTON  1230   51      40/  6/  7 1011.9F
ATWATER BUOY     1209   49      60/  4/  6 1011.0F
MILWAUKEE LAKESH 1300   48     100/  2/  2   N/A
S MID LAKE BUOY  1250   45 45   20/  8/ 10 1011.5F   1/ 4
KENOSHA   LAKESH 1300   53      80/  6/  6 1011.2
$$

TC  - TEMPERATURE IN CELSIUS
VSB - VISIBILITY IN STATUTE MILES
WCI - WIND CHILL INDEX
HX  - HEAT INDEX





USA.gov is the U.S. government's official web portal to all federal, state and local government web resources and services.